[[{"header":{"parameterUnit":"m.s-1","parameterCategory":2,"la1":30.2991,"la2":30.254,"lo1":-89.0895,"lo2":-89.0444,"dy":0.0017,"dx":0.0017,"nx":28,"ny":28,"refTime":"2025-05-19T03:00:00:Z","depth":"0","parameterNumber":2,"parameterNumberName":"U-component_of_CURRENTS"},"data":[0,0,0,0,0,0,0,0,0,0,0,0,0,0,0,0,0,0,0,0,0,0,0,0,0,0,0,0,0,0,0,0,0,0,0,0,0,0,0,0,0,0,0,0,0,0,0,0,0,0,0,0,0,0,0,0,0,0,0.2268,0.2268,0,0.2316,0.2317,0.2318,0.2394,0.2395,0.2396,0.2397,0.2414,0.2414,0.2413,0,0,0,0,0,0,0,0,0,0,0,0,0,0.2264,0.2263,0.2268,0.2268,0.2268,0.2316,0.2317,0.2318,0.2393,0.2395,0.2396,0.2397,0.2414,0.2414,0.2413,0,0,0,0,0,0,0,0,0,0,0,0,0,0.2288,0.2263,0.2268,0.2309,0.2312,0.2316,0.2317,0.2318,0.2393,0.2395,0.2396,0.2398,0.2415,0.2414,0.2413,0.2379,0,0,0.2411,0.2411,0,0,0,0,0,0,0,0,0.2286,0.2288,0.2302,0.2306,0.231,0.2347,0.2322,0.2336,0.2393,0.2367,0.2397,0.2398,0.2385,0.2387,0.2399,0.238,0.2381,0.2411,0.2411,0.241,0.241,0,0,0,0,0,0,0,0.2284,0.2287,0.2291,0.2302,0.2307,0.2332,0.2337,0.2325,0.2369,0.2369,0.2374,0.2372,0.2388,0.2399,0.24,0.2381,0.2411,0.2411,0.241,0.241,0.2386,0.2385,0,0,0,0,0,0,0.2267,0.2285,0.2289,0.2292,0.2297,0.233,0.2337,0.2337,0.237,0.2376,0.2371,0.2375,0.24,0.24,0.24,0.242,0.241,0.241,0.2409,0.2386,0.2386,0.2385,0,0,0,0,0,0,0.2267,0.2267,0.2287,0.2286,0.229,0.2328,0.2328,0.2337,0.235,0.2371,0.2378,0.2375,0.2401,0.2401,0.2393,0.2419,0.241,0.2409,0.2386,0.2386,0.2386,0.242,0,0,0,0,0,0,0.2267,0.2267,0.226,0.2285,0.2289,0.2281,0.2327,0.2336,0.2345,0.2352,0.2376,0.238,0.2402,0.2394,0.2392,0.2418,0.2408,0.2386,0.2386,0.2386,0.2419,0.2421,0.2423,0,0,0,0,0,0.2266,0.2253,0.226,0.226,0.228,0.228,0.2284,0.232,0.2343,0.234,0.2363,0.2379,0.2391,0.2392,0.239,0.2417,0.2387,0.2386,0.2386,0.2419,0.2421,0.2423,0,0,0,0,0,0,0.2257,0.226,0.2268,0.2259,0.2262,0.2291,0.229,0.2309,0.2326,0.2335,0.2363,0.2367,0.2376,0.2373,0.2374,0.2406,0.2396,0.2395,0.2422,0.2423,0.2425,0.25,0.2408,0,0,0,0,0,0.2246,0.2239,0.2242,0.2238,0.2232,0.2257,0.2262,0.2282,0.2298,0.2309,0.2323,0.2343,0.237,0.2377,0.2385,0.2385,0.245,0.2402,0.2404,0.2406,0.2464,0.2581,0.2601,0.2384,0.2384,0.2384,0,0,0.2247,0.2243,0.2244,0.2235,0.2243,0.2263,0.2265,0.2266,0.2306,0.2303,0.2342,0.2338,0.2367,0.2389,0.2393,0.2392,0.2489,0.2405,0.2407,0.2466,0.2583,0.2605,0.2625,0.2383,0.2383,0.2383,0,0,0.2249,0.2233,0.2231,0.2235,0.2232,0.225,0.2245,0.2256,0.2281,0.2285,0.2324,0.2343,0.2336,0.2402,0.2428,0.2436,0.249,0.2414,0.2493,0.2604,0.2625,0.2644,0.2716,0.2742,0.242,0.242,0.242,0,0.2255,0.2263,0.223,0.2239,0.2266,0.2247,0.228,0.2294,0.2308,0.2351,0.2296,0.2382,0.2367,0.2493,0.2487,0.245,0.2507,0.2485,0.2613,0.2634,0.2654,0.2723,0.2751,0.2422,0.2422,0.2422,0.2421,0,0.2268,0.2284,0.2281,0.2302,0.2311,0.2329,0.2344,0.2357,0.2358,0.2395,0.2466,0.2455,0.2531,0.2504,0.249,0.263,0.2622,0.26,0.2622,0.2679,0.2746,0.2775,0.2424,0.2424,0.2423,0.2423,0,0,0.2283,0.2295,0.2301,0.2344,0.2357,0.2378,0.2426,0.2495,0.2571,0.2553,0.2671,0.2679,0.2686,0.2718,0.2712,0.2783,0.2911,0.2745,0.275,0.2842,0.3147,0.3041,0.3062,0.2918,0.2924,0.2929,0.3126,0,0.2324,0.2378,0.2367,0.2448,0.2492,0.2502,0.2562,0.2619,0.2646,0.2733,0.2769,0.2848,0.2769,0.28,0.2867,0.2902,0.2995,0.2859,0.3059,0.3066,0.2987,0.3095,0.2879,0.303,0.3155,0.316,0.3163,0,0.2363,0.2401,0.2482,0.257,0.2587,0.263,0.2752,0.2799,0.2909,0.293,0.3025,0.3045,0.3162,0.306,0.3227,0.3144,0.3171,0.3184,0.3192,0.3121,0.3016,0.2999,0.3078,0.301,0.3208,0.3204,0.3201,0,0.2434,0.2497,0.2577,0.2605,0.2679,0.2733,0.278,0.2877,0.2922,0.3082,0.312,0.3276,0.3316,0.3418,0.3395,0.3343,0.3556,0.3491,0.3447,0.3437,0.3312,0.3282,0.3382,0.3668,0.3668,0.3667,0.3667,0,0.2513,0.2576,0.2619,0.267,0.2763,0.2806,0.2908,0.2975,0.3069,0.3135,0.3234,0.3301,0.3403,0.3493,0.3509,0.3559,0.3663,0.352,0.3512,0.3306,0.3274,0.3254,0.3245,0.3675,0.3673,0.3671,0.367,0,0.258,0.261,0.2692,0.2774,0.2794,0.2865,0.292,0.2983,0.3085,0.3174,0.3225,0.3349,0.3466,0.3553,0.3697,0.3668,0.3642,0.3747,0.3471,0.3427,0.3288,0.3287,0.3266,0.3186,0.3765,0.3764,0.3763,0,0.2623,0.2676,0.2742,0.2755,0.2783,0.2861,0.2891,0.2981,0.3022,0.3172,0.3207,0.3363,0.3427,0.3606,0.3611,0.3701,0.3611,0.3562,0.343,0.3309,0.3305,0.3132,0.3054,0.3266,0.3262,0.3258,0.3254,0,0.2688,0.2697,0.2739,0.2763,0.279,0.2818,0.287,0.2895,0.2993,0.3063,0.315,0.3232,0.3368,0.3356,0.3464,0.3472,0.3362,0.3482,0.3455,0.3034,0.2761,0.2666,0.3087,0.3219,0.3223,0.3225,0.3227,0.3229,0.2697,0.2715,0.2731,0.2746,0.2754,0.2746,0.2746,0.2786,0.2825,0.2881,0.3016,0.3057,0.3122,0.3218,0.3221,0.3094,0.3122,0.3001,0.3046,0.2908,0.2722,0.3049,0.3097,0.31,0.3102,0.3104,0.3106,0,0.2687,0.2687,0.2702,0.2683,0.2645,0.2681,0.2689,0.2658,0.265,0.2716,0.277,0.278,0.2771,0.2813,0.2756,0.2678,0.2516,0.2637,0.2372,0.235,0.274,0.2606,0.2428,0.2428,0.2428,0.2428,0.2428,0.2428,0.2674,0.2664,0.2659,0.257,0.2543,0.2463,0.2451,0.242,0.2426,0.238,0.2357,0.2409,0.2531,0.2557,0.2457,0.2393,0.2248,0.209,0.2198,0.2497,0.2533,0.2568,0.2439,0.2229,0.2229,0.1596,0.1592,0.1589]},{"header":{"parameterUnit":"m.s-1","parameterCategory":2,"la1":30.2991,"la2":30.254,"lo1":-89.0895,"lo2":-89.0444,"dy":0.0017,"dx":0.0017,"nx":28,"ny":28,"refTime":"2025-05-19T03:00:00:Z","depth":"0","parameterNumber":3,"parameterNumberName":"V-component_of_CURRENTS"},"data":[0,0,0,0,0,0,0,0,0,0,0,0,0,0,0,0,0,0,0,0,0,0,0,0,0,0,0,0,0,0,0,0,0,0,0,0,0,0,0,0,0,0,0,0,0,0,0,0,0,0,0,0,0,0,0,0,0,0,0.0321,0.032,0,0.0214,0.0212,0.0211,0.0153,0.0153,0.0153,0.0153,0.0089,0.0088,0.0086,0,0,0,0,0,0,0,0,0,0,0,0,0,0.034,0.0341,0.0321,0.032,0.0319,0.0214,0.0212,0.0211,0.0153,0.0153,0.0153,0.0153,0.009,0.0088,0.0086,0,0,0,0,0,0,0,0,0,0,0,0,0,0.0292,0.0341,0.0321,0.0278,0.0273,0.0214,0.0212,0.021,0.0153,0.0153,0.0153,0.0153,0.009,0.0088,0.0085,0.0071,0,0,0.0078,0.0077,0,0,0,0,0,0,0,0,0.0295,0.0291,0.0286,0.0281,0.0275,0.0198,0.0195,0.0166,0.0153,0.0198,0.0153,0.0153,0.013,0.0124,0.0102,0.0068,0.0065,0.0078,0.0076,0.0075,0.0074,0,0,0,0,0,0,0,0.0298,0.0294,0.0278,0.0284,0.0278,0.0217,0.0211,0.0189,0.0166,0.0194,0.019,0.0179,0.0127,0.0105,0.0101,0.0065,0.0078,0.0075,0.0074,0.0073,0.0044,0.0045,0,0,0,0,0,0,0.0321,0.0299,0.0281,0.0275,0.0286,0.0218,0.0211,0.0222,0.0165,0.0156,0.0179,0.0177,0.0109,0.0104,0.0098,0.015,0.0075,0.0073,0.0071,0.0043,0.0044,0.0045,0,0,0,0,0,0,0.0322,0.0321,0.0285,0.0283,0.0274,0.0218,0.023,0.022,0.0202,0.0154,0.0145,0.0174,0.0109,0.0102,0.0088,0.0144,0.0072,0.0069,0.0043,0.0044,0.0045,0.0208,0,0,0,0,0,0,0.0323,0.0323,0.0335,0.0286,0.0276,0.0268,0.023,0.0218,0.0196,0.0192,0.0146,0.0139,0.0108,0.0092,0.0085,0.014,0.0067,0.0042,0.0043,0.0044,0.0201,0.0214,0.0225,0,0,0,0,0,0.0325,0.0345,0.0337,0.0334,0.0297,0.0269,0.0259,0.0216,0.0196,0.0198,0.0164,0.0141,0.0096,0.009,0.0083,0.0138,0.0041,0.0043,0.0044,0.0196,0.0212,0.0225,0,0,0,0,0,0,0.0343,0.034,0.033,0.0344,0.0317,0.026,0.0253,0.0224,0.0195,0.0194,0.0146,0.0137,0.0152,0.0107,0.0102,0.0128,0.0067,0.0067,0.0185,0.0199,0.0211,0.0234,0.0065,0,0,0,0,0,0.0359,0.0385,0.0355,0.0364,0.0358,0.0308,0.0289,0.0264,0.0231,0.0217,0.0184,0.0153,0.015,0.0144,0.0121,0.0131,0.0088,0.0158,0.017,0.0181,0.0191,0.0175,0.0187,0.0051,0.0051,0.0051,0,0,0.036,0.0367,0.0374,0.0371,0.0346,0.0355,0.0297,0.0282,0.0297,0.0217,0.0225,0.0194,0.0159,0.0178,0.0181,0.0152,0.0195,0.0183,0.0193,0.0197,0.0178,0.0191,0.0204,0.0052,0.0051,0.0051,0,0,0.0387,0.0393,0.0425,0.0422,0.0408,0.0385,0.0389,0.0345,0.0338,0.0334,0.0296,0.0301,0.0262,0.0269,0.0265,0.0323,0.026,0.0307,0.0393,0.0378,0.039,0.04,0.0366,0.0371,0.0314,0.0314,0.0315,0,0.0387,0.0438,0.0422,0.0456,0.0466,0.0411,0.0442,0.0428,0.0385,0.0397,0.0358,0.0343,0.0319,0.0371,0.0391,0.036,0.0316,0.0352,0.0398,0.0407,0.0414,0.0376,0.038,0.0322,0.0321,0.0321,0.032,0,0.044,0.0484,0.0502,0.0545,0.0548,0.0565,0.0553,0.0555,0.0536,0.0523,0.0551,0.0509,0.0505,0.0504,0.0468,0.052,0.0459,0.042,0.0373,0.0439,0.0393,0.0394,0.0334,0.0331,0.0329,0.0327,0,0,0.0435,0.0526,0.0534,0.0584,0.0606,0.0614,0.0657,0.0683,0.0722,0.0687,0.0739,0.0735,0.0701,0.0692,0.0653,0.0639,0.0663,0.0554,0.0549,0.0539,0.0605,0.0594,0.0593,0.0622,0.0623,0.0624,0.0553,0,0.0483,0.0586,0.0613,0.0699,0.0752,0.0748,0.0797,0.0815,0.0817,0.0849,0.0829,0.0854,0.0778,0.0786,0.0766,0.0688,0.0671,0.0684,0.0524,0.0519,0.0519,0.0597,0.0587,0.0525,0.0554,0.0554,0.0554,0,0.0534,0.0605,0.0711,0.0817,0.0837,0.0875,0.0952,0.0987,0.1024,0.1029,0.1043,0.1009,0.1014,0.0927,0.0837,0.0838,0.0739,0.0664,0.0658,0.0594,0.0512,0.046,0.0525,0.0442,0.0555,0.0555,0.0555,0,0.0564,0.0677,0.0775,0.0808,0.0904,0.0952,0.0992,0.1043,0.109,0.1143,0.1177,0.1157,0.1152,0.1038,0.0888,0.0858,0.0762,0.0703,0.06,0.0596,0.053,0.052,0.0516,0.0642,0.0643,0.0643,0.0643,0,0.0632,0.0707,0.0799,0.0853,0.0958,0.1006,0.1106,0.1143,0.1212,0.1286,0.1269,0.1313,0.1174,0.11,0.0941,0.0786,0.0805,0.0636,0.0593,0.0585,0.058,0.0455,0.0409,0.064,0.0641,0.0641,0.0642,0,0.0674,0.0736,0.084,0.0946,0.0981,0.1051,0.1161,0.123,0.1294,0.139,0.1415,0.1425,0.1345,0.119,0.1013,0.0868,0.0661,0.0646,0.0641,0.0601,0.0435,0.0397,0.0335,0.0293,0.0531,0.0531,0.0531,0,0.0722,0.0783,0.0886,0.0936,0.099,0.1093,0.1164,0.1254,0.133,0.1455,0.1505,0.149,0.1485,0.1244,0.1001,0.0756,0.065,0.0579,0.0539,0.0454,0.038,0.0356,0.0324,0.0501,0.05,0.05,0.05,0,0.0796,0.0813,0.0881,0.0974,0.1053,0.116,0.1271,0.1345,0.1462,0.156,0.1665,0.1681,0.1491,0.1276,0.0971,0.0785,0.0542,0.0563,0.0479,0.0379,0.0347,0.0276,0.0502,0.0495,0.0496,0.0496,0.0496,0.0497,0.0818,0.086,0.0923,0.1013,0.1101,0.1221,0.1311,0.1441,0.1583,0.175,0.1758,0.1811,0.1526,0.1129,0.0878,0.0485,0.0507,0.0359,0.0323,0.0309,0.0279,0.0503,0.0451,0.0451,0.0451,0.0451,0.0451,0,0.0847,0.0889,0.0966,0.1065,0.1154,0.1209,0.1378,0.1483,0.1656,0.1808,0.1907,0.1804,0.1447,0.1072,0.0557,0.0295,0.0189,0.0167,0.0124,0.0102,0.0295,0.0306,0.0218,0.0218,0.0218,0.0218,0.0219,0.0219,0.0856,0.0917,0.0956,0.1093,0.1165,0.1301,0.1399,0.1571,0.1712,0.1897,0.1954,0.1984,0.1758,0.0841,0.0258,0.0116,-0.003,-0.007,-0.0124,-0.0005,0.001,0.0024,0.0025,-0.0121,-0.0121,-0.0306,-0.0308,-0.031]}],[{"header":{"parameterUnit":"m.s-1","parameterCategory":2,"la1":30.2991,"la2":30.254,"lo1":-89.0895,"lo2":-89.0444,"dy":0.0017,"dx":0.0017,"nx":28,"ny":28,"refTime":"2025-05-19T03:00:00:Z","depth":"2","parameterNumber":2,"parameterNumberName":"U-component_of_CURRENTS"},"data":[0,0,0,0,0,0,0,0,0,0,0,0,0,0,0,0,0,0,0,0,0,0,0,0,0,0,0,0,0,0,0,0,0,0,0,0,0,0,0,0,0,0,0,0,0,0,0,0,0,0,0,0,0,0,0,0,0,0,0.2234,0.2234,0,0.2288,0.2289,0.229,0.238,0.2381,0.2382,0.2383,0.2394,0.2393,0.2392,0,0,0,0,0,0,0,0,0,0,0,0,0,0.2195,0.2196,0.2234,0.2234,0.2234,0.2288,0.2289,0.229,0.2379,0.2381,0.2382,0.2384,0.2394,0.2393,0.2392,0,0,0,0,0,0,0,0,0,0,0,0,0,0.2232,0.2196,0.2234,0.2281,0.2286,0.2287,0.2289,0.2291,0.2379,0.2381,0.2383,0.2384,0.2395,0.2393,0.2392,0.2349,0,0,0.2389,0.2388,0,0,0,0,0,0,0,0,0.2229,0.2234,0.2274,0.2278,0.2283,0.2324,0.2279,0.2306,0.2379,0.2349,0.2383,0.2385,0.2362,0.2364,0.2378,0.235,0.235,0.2388,0.2388,0.2387,0.2387,0,0,0,0,0,0,0,0.2227,0.2232,0.2261,0.2274,0.2279,0.2295,0.2303,0.2285,0.2348,0.2352,0.2357,0.2354,0.2365,0.2379,0.2378,0.2351,0.2388,0.2387,0.2387,0.2386,0.2343,0.2343,0,0,0,0,0,0,0.2208,0.2229,0.2259,0.2262,0.2254,0.2294,0.2303,0.2313,0.2349,0.2356,0.2353,0.2358,0.238,0.238,0.2379,0.2391,0.2387,0.2386,0.2385,0.2344,0.2343,0.2343,0,0,0,0,0,0,0.2208,0.2211,0.2256,0.2242,0.2248,0.2292,0.2303,0.2313,0.2329,0.235,0.2357,0.2357,0.2381,0.2381,0.2369,0.239,0.2386,0.2384,0.2344,0.2343,0.2343,0.2375,0,0,0,0,0,0,0.2207,0.2211,0.2206,0.2241,0.2248,0.2247,0.2302,0.2313,0.2321,0.233,0.2355,0.2359,0.2383,0.2371,0.2368,0.2388,0.2383,0.2345,0.2344,0.2343,0.2374,0.2376,0.2376,0,0,0,0,0,0.2205,0.2192,0.2206,0.2208,0.2243,0.2245,0.225,0.2292,0.232,0.2315,0.2342,0.2358,0.2365,0.2369,0.2366,0.2386,0.2345,0.2344,0.2343,0.2374,0.2375,0.2376,0,0,0,0,0,0,0.2181,0.22,0.2216,0.2213,0.2221,0.2258,0.2255,0.2279,0.2298,0.231,0.234,0.2344,0.2347,0.2344,0.2348,0.2369,0.2361,0.2359,0.2386,0.2387,0.2388,0.2464,0.2382,0,0,0,0,0,0.2167,0.2167,0.2182,0.2183,0.218,0.2214,0.2218,0.2244,0.2265,0.2278,0.2294,0.2315,0.2338,0.2344,0.2348,0.2342,0.2405,0.2355,0.2356,0.2357,0.2415,0.2511,0.2528,0.234,0.234,0.234,0,0,0.2165,0.217,0.2175,0.2177,0.2192,0.221,0.2223,0.2226,0.2267,0.2269,0.231,0.2306,0.2333,0.235,0.2351,0.2353,0.2435,0.2355,0.2357,0.2416,0.2512,0.2531,0.2548,0.2339,0.2339,0.2339,0,0,0.2163,0.2155,0.2159,0.2166,0.217,0.2188,0.2183,0.2204,0.2236,0.2242,0.2284,0.23,0.2291,0.2355,0.2379,0.2379,0.2432,0.2355,0.2433,0.2523,0.2542,0.2559,0.2643,0.2667,0.2363,0.2363,0.2363,0,0.2165,0.2184,0.2157,0.2169,0.2198,0.2181,0.2217,0.2232,0.2253,0.2304,0.2252,0.2333,0.2318,0.2433,0.2431,0.2391,0.2447,0.2429,0.2532,0.255,0.2567,0.2649,0.2676,0.2364,0.2364,0.2364,0.2364,0,0.2177,0.2201,0.2199,0.2227,0.2233,0.2254,0.2272,0.2285,0.2292,0.2337,0.2406,0.2393,0.247,0.2438,0.243,0.2553,0.2553,0.2519,0.2543,0.2589,0.267,0.2698,0.2366,0.2366,0.2365,0.2365,0,0,0.2201,0.2215,0.2224,0.2272,0.2281,0.2304,0.2345,0.2419,0.2502,0.248,0.261,0.2605,0.2618,0.2648,0.264,0.2694,0.2814,0.2656,0.266,0.2766,0.3026,0.2812,0.2821,0.2799,0.2804,0.2808,0.3029,0,0.2247,0.2308,0.2293,0.2377,0.2425,0.243,0.2487,0.2544,0.2577,0.2673,0.2701,0.2784,0.2697,0.2732,0.278,0.2806,0.2891,0.2759,0.2945,0.2952,0.2777,0.2847,0.2587,0.2743,0.3056,0.306,0.3064,0,0.2293,0.2336,0.2424,0.2515,0.2534,0.2571,0.2695,0.2741,0.2853,0.2883,0.2971,0.2991,0.3094,0.2983,0.3121,0.304,0.3064,0.3065,0.3073,0.2898,0.2789,0.2749,0.2782,0.311,0.3106,0.3103,0.31,0,0.2378,0.2446,0.2534,0.2562,0.2631,0.2688,0.2731,0.2827,0.2875,0.3043,0.3085,0.3225,0.3261,0.3334,0.3297,0.3242,0.3427,0.3355,0.3212,0.3198,0.303,0.2989,0.3509,0.3509,0.3508,0.3508,0.3507,0,0.2471,0.2542,0.2585,0.2639,0.2738,0.2776,0.2883,0.2948,0.3042,0.311,0.3207,0.3269,0.3342,0.3417,0.3415,0.3383,0.3538,0.3273,0.3253,0.3022,0.298,0.3334,0.3311,0.3516,0.3514,0.3512,0.3511,0,0.2553,0.2584,0.2672,0.2753,0.2775,0.2849,0.2899,0.2966,0.3068,0.3158,0.3209,0.3331,0.3426,0.3488,0.36,0.3484,0.3514,0.3479,0.3186,0.3123,0.3211,0.3187,0.3375,0.337,0.3365,0.3361,0.3358,0,0.2604,0.2661,0.2725,0.274,0.2768,0.285,0.2879,0.2968,0.3009,0.3159,0.3194,0.334,0.3372,0.3458,0.3372,0.3389,0.3486,0.3105,0.2927,0.3243,0.3206,0.3188,0.317,0.274,0.2732,0.2726,0.2721,0,0.2676,0.2684,0.2726,0.2751,0.2779,0.2808,0.2862,0.2885,0.2981,0.3045,0.3122,0.3175,0.3231,0.3085,0.3065,0.3024,0.3067,0.2961,0.345,0.2754,0.2645,0.2606,0.2611,0.2662,0.2668,0.2672,0.2675,0.2678,0.2687,0.2705,0.2718,0.2734,0.2744,0.2737,0.2737,0.2774,0.2805,0.2815,0.2921,0.286,0.2851,0.2648,0.2582,0.252,0.2711,0.2562,0.2584,0.2613,0.244,0.2321,0.2249,0.2252,0.2255,0.2258,0.226,0,0.2672,0.2675,0.2689,0.2671,0.2633,0.2673,0.2681,0.2639,0.262,0.2584,0.2563,0.2246,0.214,0.2191,0.1984,0.1919,0.1931,0.1852,0.1871,0.1929,0.1981,0.1777,0.1411,0.1408,0.1406,0.1404,0,0,0.2658,0.2644,0.2637,0.2551,0.253,0.245,0.2437,0.2384,0.2323,0.2119,0.1977,0.2002,0.2067,0.169,0.1644,0.151,0.1712,0.1443,0.2125,0.2205,0.2254,0.2386,0.2134,0,0,0,0,0]},{"header":{"parameterUnit":"m.s-1","parameterCategory":2,"la1":30.2991,"la2":30.254,"lo1":-89.0895,"lo2":-89.0444,"dy":0.0017,"dx":0.0017,"nx":28,"ny":28,"refTime":"2025-05-19T03:00:00:Z","depth":"2","parameterNumber":3,"parameterNumberName":"V-component_of_CURRENTS"},"data":[0,0,0,0,0,0,0,0,0,0,0,0,0,0,0,0,0,0,0,0,0,0,0,0,0,0,0,0,0,0,0,0,0,0,0,0,0,0,0,0,0,0,0,0,0,0,0,0,0,0,0,0,0,0,0,0,0,0,0.0237,0.0236,0,0.0134,0.0132,0.0131,0.0077,0.0077,0.0077,0.0077,0.0012,0.001,0.0009,0,0,0,0,0,0,0,0,0,0,0,0,0,0.024,0.0241,0.0237,0.0236,0.0235,0.0134,0.0132,0.0131,0.0077,0.0077,0.0077,0.0077,0.0013,0.001,0.0008,0,0,0,0,0,0,0,0,0,0,0,0,0,0.0197,0.0241,0.0237,0.0196,0.0192,0.0134,0.0132,0.013,0.0077,0.0077,0.0077,0.0077,0.0013,0.0011,0.0008,-0.0008,0,0,0.0,-0.0001,0,0,0,0,0,0,0,0,0.02,0.0197,0.0204,0.0199,0.0194,0.0119,0.0109,0.0086,0.0077,0.0119,0.0077,0.0077,0.0052,0.0046,0.0025,-0.0011,-0.0014,-0.0,-0.0002,-0.0003,-0.0004,0,0,0,0,0,0,0,0.0203,0.0201,0.0195,0.0202,0.0196,0.0132,0.0128,0.0104,0.0087,0.0116,0.0112,0.0102,0.0049,0.0027,0.0023,-0.0015,-0.0,-0.0002,-0.0004,-0.0005,-0.0048,-0.0048,0,0,0,0,0,0,0.0226,0.0205,0.0198,0.0192,0.0198,0.0133,0.0128,0.0142,0.0086,0.0078,0.0102,0.01,0.0032,0.0026,0.0021,0.0059,-0.0003,-0.0005,-0.0007,-0.0049,-0.0048,-0.0048,0,0,0,0,0,0,0.0227,0.0228,0.0203,0.0195,0.0187,0.0134,0.015,0.014,0.0124,0.0075,0.0067,0.0097,0.0032,0.0024,0.0009,0.0054,-0.0006,-0.0009,-0.0049,-0.0048,-0.0048,0.0098,0,0,0,0,0,0,0.0228,0.0229,0.0242,0.0198,0.0189,0.0183,0.015,0.0138,0.0118,0.0114,0.0069,0.0062,0.0031,0.0013,0.0006,0.005,-0.0011,-0.005,-0.0049,-0.0048,0.0093,0.0103,0.0113,0,0,0,0,0,0.0229,0.0247,0.0244,0.0243,0.0212,0.0184,0.0173,0.0133,0.0118,0.0117,0.0086,0.0064,0.0013,0.0011,0.0003,0.0047,-0.005,-0.0049,-0.0048,0.0088,0.0101,0.0112,0,0,0,0,0,0,0.0237,0.0242,0.0238,0.0253,0.0229,0.0175,0.0166,0.0141,0.0112,0.0112,0.0067,0.0059,0.0065,0.0023,0.0022,0.0031,-0.0022,-0.0022,0.0085,0.0097,0.0106,0.0132,-0.0013,0,0,0,0,0,0.0252,0.028,0.0257,0.0267,0.0262,0.0218,0.02,0.0177,0.0146,0.0132,0.0101,0.007,0.0059,0.0052,0.0026,0.003,-0.0011,0.0049,0.0059,0.0068,0.008,0.0047,0.0057,-0.0045,-0.0045,-0.0045,0,0,0.025,0.0261,0.027,0.0272,0.025,0.0253,0.0207,0.0192,0.0201,0.0132,0.0134,0.0104,0.0065,0.0075,0.0074,0.005,0.0076,0.0069,0.0078,0.0085,0.0049,0.006,0.0069,-0.0044,-0.0044,-0.0044,0,0,0.0269,0.0282,0.0312,0.0309,0.0298,0.0275,0.0278,0.0241,0.0235,0.023,0.0193,0.0193,0.0153,0.0151,0.0142,0.0187,0.013,0.0171,0.025,0.022,0.0229,0.0236,0.021,0.0213,0.0178,0.0179,0.0179,0,0.0266,0.0316,0.0307,0.0336,0.0344,0.0295,0.0321,0.0304,0.0266,0.0283,0.025,0.0223,0.0199,0.023,0.025,0.0218,0.0178,0.0218,0.0237,0.0243,0.0248,0.0219,0.0221,0.0186,0.0185,0.0184,0.0184,0,0.0306,0.035,0.0365,0.0403,0.0403,0.0417,0.0404,0.0403,0.039,0.0384,0.0405,0.0359,0.0352,0.0345,0.0317,0.0349,0.0302,0.0257,0.0217,0.0268,0.0233,0.0233,0.0196,0.0194,0.0191,0.019,0,0,0.0302,0.0384,0.0392,0.0442,0.0453,0.0461,0.0485,0.051,0.0555,0.0513,0.0566,0.0546,0.0524,0.051,0.047,0.0446,0.0462,0.0375,0.037,0.0369,0.039,0.0327,0.0319,0.0412,0.0412,0.0413,0.0357,0,0.0343,0.0438,0.0456,0.0532,0.0584,0.0572,0.0611,0.0626,0.0636,0.0671,0.0638,0.0667,0.0586,0.0601,0.0564,0.0489,0.0465,0.0481,0.0322,0.0318,0.0273,0.0318,0.0332,0.028,0.0356,0.0356,0.0356,0,0.0388,0.0456,0.0554,0.0655,0.0673,0.0702,0.0776,0.0803,0.0839,0.0852,0.0855,0.0825,0.0811,0.0725,0.0612,0.0619,0.0525,0.0448,0.0443,0.0332,0.0254,0.0236,0.0276,0.0355,0.0355,0.0355,0.0355,0,0.0429,0.0531,0.0626,0.0655,0.074,0.0785,0.0819,0.0869,0.0918,0.0973,0.1015,0.097,0.0963,0.0827,0.0676,0.0645,0.0534,0.0469,0.032,0.0314,0.027,0.0259,0.0391,0.0392,0.0392,0.0392,0.0392,0,0.0497,0.0574,0.066,0.0714,0.082,0.0857,0.0963,0.0995,0.106,0.1139,0.1115,0.1153,0.0984,0.0899,0.0731,0.0531,0.0573,0.0347,0.03,0.0319,0.0314,0.0324,0.0317,0.039,0.039,0.0391,0.0391,0,0.0551,0.0609,0.0712,0.0812,0.0849,0.0923,0.1028,0.11,0.1167,0.1262,0.1287,0.1287,0.1193,0.1012,0.0815,0.0615,0.0429,0.0349,0.0387,0.0343,0.0213,0.0214,0.0171,0.0168,0.0166,0.0164,0.0163,0,0.0604,0.0667,0.0767,0.0818,0.087,0.0979,0.105,0.1136,0.1214,0.1339,0.1386,0.1367,0.1327,0.1027,0.0742,0.0451,0.0429,0.0238,0.0174,0.0235,0.0193,0.0197,0.0201,0.018,0.0178,0.0177,0.0177,0,0.0685,0.0703,0.0766,0.0864,0.0946,0.1053,0.1166,0.1239,0.1352,0.1444,0.1539,0.1525,0.1295,0.1015,0.0641,0.0439,0.0281,0.0203,0.0276,0.0224,0.0236,0.0196,0.0202,0.0167,0.0168,0.0169,0.0169,0.017,0.0712,0.0754,0.0811,0.0904,0.0998,0.112,0.1211,0.1333,0.1466,0.1594,0.1583,0.1538,0.1271,0.0767,0.0493,0.0214,0.0216,0.0058,0.0065,0.0072,0.0074,0.008,-0.0017,-0.0017,-0.0017,-0.0017,-0.0017,0,0.0729,0.0779,0.0855,0.0958,0.1051,0.1114,0.1281,0.1366,0.1525,0.1589,0.1633,0.1302,0.102,0.0748,0.0322,0.0033,0.0038,-0.0054,0.002,0.003,0.0039,0.0042,-0.0059,-0.0059,-0.006,-0.0061,0,0,0.0736,0.0784,0.0818,0.097,0.1062,0.1193,0.1291,0.1428,0.1501,0.1537,0.1488,0.1395,0.105,0.0715,0.0399,0.018,0.0159,0.0125,0.0182,0.0318,0.033,0.0123,0.014,0,0,0,0,0]}],[{"header":{"parameterUnit":"m.s-1","parameterCategory":2,"la1":30.2991,"la2":30.254,"lo1":-89.0895,"lo2":-89.0444,"dy":0.0017,"dx":0.0017,"nx":28,"ny":28,"refTime":"2025-05-19T03:00:00:Z","depth":"4","parameterNumber":2,"parameterNumberName":"U-component_of_CURRENTS"},"data":[0,0,0,0,0,0,0,0,0,0,0,0,0,0,0,0,0,0,0,0,0,0,0,0,0,0,0,0,0,0,0,0,0,0,0,0,0,0,0,0,0,0,0,0,0,0,0,0,0,0,0,0,0,0,0,0,0,0,0.0899,0.0899,0,0.0807,0.0805,0.0803,0.0859,0.0863,0.0867,0.087,0.1139,0.1143,0.1146,0,0,0,0,0,0,0,0,0,0,0,0,0,0.0945,0.0944,0.0899,0.0899,0.0899,0.0807,0.0805,0.0802,0.0858,0.0863,0.0868,0.0872,0.1138,0.1142,0.1146,0,0,0,0,0,0,0,0,0,0,0,0,0,0.0884,0.0944,0.0899,0.0926,0.0928,0.0808,0.0805,0.0802,0.0857,0.0863,0.0869,0.0874,0.1137,0.1142,0.1147,0.1065,0,0,0.1164,0.1166,0,0,0,0,0,0,0,0,0.0888,0.0881,0.0922,0.0924,0.0926,0.0862,0.092,0.0912,0.0856,0.0871,0.087,0.0877,0.1084,0.1094,0.104,0.1078,0.1089,0.1164,0.1167,0.117,0.1171,0,0,0,0,0,0,0,0.0892,0.0885,0.085,0.0922,0.0924,0.0881,0.0879,0.0915,0.0943,0.087,0.0877,0.0885,0.1087,0.1034,0.1049,0.1093,0.1164,0.1169,0.1172,0.1174,0.1337,0.1338,0,0,0,0,0,0,0.0932,0.0889,0.0853,0.0849,0.0935,0.0878,0.0874,0.0866,0.0935,0.0952,0.088,0.0888,0.1022,0.1042,0.1059,0.1203,0.117,0.1175,0.1178,0.1336,0.1337,0.1339,0,0,0,0,0,0,0.0932,0.0928,0.0857,0.0878,0.0868,0.0873,0.0861,0.0862,0.0892,0.0941,0.0964,0.0924,0.1028,0.1052,0.119,0.1207,0.1177,0.1182,0.1335,0.1337,0.1338,0.1343,0,0,0,0,0,0,0.0933,0.0928,0.0951,0.088,0.0869,0.0886,0.0857,0.0856,0.089,0.0901,0.0984,0.1009,0.1034,0.1181,0.1195,0.1214,0.1186,0.1333,0.1336,0.1338,0.1342,0.1345,0.1348,0,0,0,0,0,0.0935,0.0944,0.0952,0.095,0.0894,0.089,0.0881,0.0893,0.0888,0.0932,0.0988,0.1011,0.1203,0.1188,0.1203,0.1224,0.1332,0.1335,0.1337,0.134,0.1344,0.1348,0,0,0,0,0,0,0.0968,0.0949,0.0957,0.096,0.0978,0.0908,0.0921,0.0922,0.0974,0.0993,0.1038,0.1069,0.119,0.1208,0.1189,0.1276,0.1264,0.127,0.1261,0.1265,0.1268,0.1289,0.1191,0,0,0,0,0,0.0985,0.099,0.0983,0.099,0.0997,0.0962,0.0963,0.0974,0.0997,0.1022,0.1084,0.1136,0.1182,0.1238,0.129,0.1343,0.137,0.1362,0.1365,0.1367,0.1395,0.1459,0.1471,0.1347,0.1347,0.1347,0,0,0.0989,0.0986,0.0987,0.1,0.0981,0.0991,0.0977,0.0993,0.1015,0.1047,0.1123,0.117,0.1205,0.1271,0.1322,0.1309,0.141,0.1371,0.1372,0.1399,0.1463,0.1476,0.1486,0.1349,0.1348,0.1348,0,0,0.0988,0.1006,0.1011,0.1035,0.1058,0.1039,0.1072,0.1062,0.1091,0.1153,0.1174,0.1254,0.132,0.1347,0.136,0.1412,0.1432,0.1419,0.1446,0.1508,0.1519,0.1529,0.1546,0.1558,0.141,0.141,0.141,0,0.1012,0.0997,0.102,0.104,0.1054,0.1076,0.1089,0.11,0.1153,0.1183,0.1212,0.1295,0.1343,0.1393,0.1411,0.142,0.145,0.1425,0.1512,0.1523,0.1534,0.1549,0.1562,0.1411,0.1411,0.1411,0.1411,0,0.1,0.1016,0.1019,0.1047,0.1085,0.1096,0.1134,0.1191,0.1217,0.1229,0.1327,0.1374,0.1432,0.1435,0.1441,0.152,0.1514,0.1515,0.1501,0.1546,0.1559,0.1572,0.1412,0.1411,0.1411,0.1411,0,0,0.0973,0.1002,0.1011,0.1005,0.1086,0.1082,0.1167,0.1216,0.122,0.1327,0.1349,0.1443,0.1482,0.1502,0.1519,0.1566,0.1645,0.1577,0.158,0.1591,0.1765,0.1551,0.1545,0.1669,0.1673,0.1675,0.1731,0,0.0955,0.0944,0.1004,0.101,0.099,0.1084,0.1122,0.1194,0.1251,0.1292,0.1383,0.1447,0.1498,0.1531,0.1588,0.1664,0.1688,0.1629,0.1724,0.1726,0.153,0.1556,0.1685,0.1741,0.1744,0.1746,0.1748,0,0.0918,0.0906,0.0914,0.0913,0.0919,0.0976,0.103,0.1073,0.118,0.1248,0.1374,0.144,0.1597,0.1585,0.1771,0.1742,0.1758,0.1785,0.1788,0.1605,0.1539,0.1697,0.1772,0.1771,0.1769,0.1767,0.1766,0,0.0793,0.0829,0.082,0.0838,0.0878,0.094,0.0977,0.1077,0.1142,0.1276,0.1357,0.1502,0.1617,0.1719,0.1794,0.1829,0.1901,0.1954,0.1757,0.1741,0.1916,0.1905,0.2017,0.2017,0.2017,0.2016,0.2016,0,0.0692,0.066,0.0773,0.0753,0.0768,0.084,0.0902,0.0964,0.1102,0.1158,0.1351,0.1416,0.1668,0.1728,0.1784,0.1792,0.1913,0.1771,0.1749,0.1909,0.1898,0.1923,0.1911,0.2018,0.2018,0.2018,0.2017,0,0.051,0.0577,0.0563,0.0653,0.0716,0.0724,0.0924,0.0937,0.1104,0.1199,0.1289,0.1465,0.1588,0.169,0.1807,0.1777,0.179,0.171,0.1818,0.1799,0.1609,0.1597,0.1632,0.1625,0.1619,0.1614,0.161,0,0.0397,0.039,0.0518,0.0562,0.0631,0.0724,0.0788,0.0959,0.1006,0.1181,0.1185,0.1362,0.1451,0.1473,0.1571,0.1637,0.1594,0.1582,0.1679,0.1599,0.1575,0.1572,0.1569,0.1601,0.16,0.1598,0.1596,0,0.0215,0.0306,0.031,0.042,0.0524,0.0601,0.0705,0.0768,0.0913,0.109,0.1138,0.1218,0.127,0.1385,0.1374,0.1409,0.1624,0.1523,0.154,0.1632,0.1562,0.1543,0.1546,0.1576,0.1579,0.1581,0.1582,0,0.013,0.0116,0.0203,0.0288,0.0383,0.0432,0.0519,0.0612,0.0723,0.0938,0.0916,0.1068,0.1217,0.1249,0.1229,0.1262,0.1335,0.1337,0.1365,0.1389,0.1278,0.1151,0.1026,0,0,0,0,0,0.0061,0.0051,0.008,0.0167,0.0235,0.031,0.043,0.052,0.0695,0.0707,0.0844,0.0887,0.0981,0.1038,0.1047,0.1111,0.1296,0.1108,0.1301,0.1464,0.1487,0.1377,0,0,0,0,0,0,0.0014,0.0022,0.0031,0.0056,0.01,0.0174,0.0242,0.035,0.0388,0.0581,0.0649,0.0813,0.0919,0.0988,0.1029,0.1047,0.1143,0.1216,0.1213,0.1451,0.1472,0.1491,0.1385,0,0,0,0,0]},{"header":{"parameterUnit":"m.s-1","parameterCategory":2,"la1":30.2991,"la2":30.254,"lo1":-89.0895,"lo2":-89.0444,"dy":0.0017,"dx":0.0017,"nx":28,"ny":28,"refTime":"2025-05-19T03:00:00:Z","depth":"4","parameterNumber":3,"parameterNumberName":"V-component_of_CURRENTS"},"data":[0,0,0,0,0,0,0,0,0,0,0,0,0,0,0,0,0,0,0,0,0,0,0,0,0,0,0,0,0,0,0,0,0,0,0,0,0,0,0,0,0,0,0,0,0,0,0,0,0,0,0,0,0,0,0,0,0,0,0.0096,0.0096,0,0.0096,0.0096,0.0097,0.0091,0.009,0.009,0.009,-0.0022,-0.0024,-0.0027,0,0,0,0,0,0,0,0,0,0,0,0,0,0.0066,0.0067,0.0096,0.0096,0.0096,0.0096,0.0096,0.0097,0.0091,0.009,0.009,0.0089,-0.0021,-0.0024,-0.0027,0,0,0,0,0,0,0,0,0,0,0,0,0,0.0076,0.0068,0.0096,0.0091,0.0091,0.0096,0.0096,0.0097,0.0091,0.009,0.009,0.0089,-0.002,-0.0024,-0.0027,-0.004,0,0,-0.0039,-0.0041,0,0,0,0,0,0,0,0,0.0076,0.0078,0.0092,0.0092,0.0091,0.0091,0.0045,0.0045,0.0091,0.0093,0.009,0.0089,0.0004,-0.0001,0.0005,-0.0045,-0.005,-0.004,-0.0042,-0.0044,-0.0045,0,0,0,0,0,0,0,0.0075,0.0078,0.0099,0.0092,0.0091,0.008,0.0081,0.0045,0.0052,0.0093,0.0092,0.0088,0.0004,0.0009,0.0002,-0.0052,-0.004,-0.0043,-0.0045,-0.0047,-0.0155,-0.0156,0,0,0,0,0,0,0.0073,0.0077,0.0099,0.0099,0.0079,0.0081,0.0083,0.0093,0.0055,0.0048,0.0089,0.0088,0.0016,0.0006,-0.0002,-0.0062,-0.0044,-0.0047,-0.005,-0.0155,-0.0156,-0.0156,0,0,0,0,0,0,0.0072,0.0075,0.0099,0.0085,0.0087,0.0082,0.0094,0.0094,0.0091,0.0052,0.0044,0.0086,0.0015,0.0003,-0.0047,-0.0065,-0.0049,-0.0053,-0.0154,-0.0155,-0.0156,-0.0155,0,0,0,0,0,0,0.0072,0.0076,0.0084,0.0085,0.0087,0.0085,0.0094,0.0094,0.0089,0.0088,0.0047,0.0037,0.0014,-0.0041,-0.0051,-0.007,-0.0056,-0.0154,-0.0155,-0.0156,-0.0154,-0.0155,-0.0157,0,0,0,0,0,0.0071,0.0074,0.0084,0.0087,0.0099,0.0083,0.0083,0.0079,0.0089,0.0078,0.0055,0.0038,-0.0054,-0.0045,-0.0056,-0.0077,-0.0153,-0.0154,-0.0156,-0.0154,-0.0155,-0.0156,0,0,0,0,0,0,0.0054,0.0074,0.0085,0.0092,0.0083,0.0081,0.0076,0.0078,0.0057,0.0057,0.0026,0.0014,-0.0036,-0.0055,-0.0044,-0.011,-0.0105,-0.0108,-0.0099,-0.0101,-0.0102,-0.01,-0.0059,0,0,0,0,0,0.0059,0.0074,0.0077,0.008,0.0079,0.0082,0.0078,0.0075,0.0057,0.005,0.0024,-0.0007,-0.0047,-0.0073,-0.0107,-0.0147,-0.0155,-0.0165,-0.0166,-0.0167,-0.0173,-0.0177,-0.0179,-0.016,-0.016,-0.016,0,0,0.005,0.0065,0.007,0.0078,0.0079,0.0067,0.0078,0.0068,0.005,0.0037,0.0005,-0.0016,-0.0058,-0.0101,-0.0125,-0.0122,-0.0182,-0.0169,-0.0169,-0.0175,-0.0179,-0.018,-0.0182,-0.0161,-0.0161,-0.0161,0,0,0.0031,0.0057,0.0059,0.0055,0.0054,0.0055,0.005,0.0048,0.0037,0.0006,-0.0008,-0.0037,-0.0092,-0.0122,-0.0147,-0.0176,-0.0187,-0.0185,-0.0194,-0.0198,-0.0199,-0.02,-0.0229,-0.0233,-0.0185,-0.0185,-0.0185,0,0.0017,0.0035,0.0049,0.0044,0.0044,0.0048,0.0039,0.0021,-0.0001,-0.0011,-0.0011,-0.0072,-0.0104,-0.016,-0.0167,-0.0181,-0.0186,-0.0185,-0.0198,-0.02,-0.0201,-0.023,-0.0234,-0.0186,-0.0186,-0.0186,-0.0186,0,-0.0004,0.0011,0.0008,0.0015,0.0008,0.0003,-0.0014,-0.0023,-0.0024,-0.0039,-0.0083,-0.0116,-0.0151,-0.0164,-0.0178,-0.0208,-0.0212,-0.0197,-0.0192,-0.0202,-0.0233,-0.0238,-0.0186,-0.0186,-0.0186,-0.0186,0,0,-0.0025,-0.0007,-0.0005,0.0017,0.0003,0.0008,-0.0032,-0.0051,-0.0055,-0.0093,-0.0118,-0.0174,-0.0176,-0.0203,-0.022,-0.0223,-0.0242,-0.0211,-0.0211,-0.0236,-0.0265,-0.0227,-0.0229,-0.0218,-0.0218,-0.0219,-0.0288,0,-0.0039,-0.0019,-0.0028,-0.0018,0.0006,-0.0009,-0.0031,-0.0053,-0.0079,-0.0108,-0.0157,-0.02,-0.0201,-0.0217,-0.0221,-0.0219,-0.025,-0.0226,-0.0255,-0.0257,-0.0217,-0.0231,-0.022,-0.0291,-0.0292,-0.0293,-0.0294,0,-0.0052,-0.0016,0.0002,0.0035,0.0038,0.0025,0.0029,0.0006,-0.0057,-0.0095,-0.0153,-0.0197,-0.024,-0.0237,-0.0257,-0.0233,-0.0264,-0.0268,-0.0271,-0.0238,-0.0226,-0.0275,-0.0302,-0.0301,-0.03,-0.03,-0.0299,0,-0.0002,0.0003,0.004,0.0046,0.0066,0.0063,0.0063,0.0023,0.0024,-0.0099,-0.0117,-0.0196,-0.0217,-0.0249,-0.0261,-0.0262,-0.0271,-0.0277,-0.0294,-0.0293,-0.0307,-0.0304,-0.0331,-0.0331,-0.0331,-0.033,-0.033,0,0.0027,0.0067,0.0071,0.0112,0.0157,0.013,0.0155,0.0113,0.0064,0.0073,-0.0092,-0.0107,-0.0211,-0.0231,-0.0265,-0.0268,-0.0279,-0.0304,-0.0303,-0.0308,-0.0305,-0.0311,-0.0308,-0.0333,-0.0333,-0.0332,-0.0332,0,0.0123,0.011,0.0182,0.0202,0.0197,0.0248,0.0245,0.0277,0.0178,0.0175,0.0129,-0.0017,-0.0067,-0.0159,-0.0219,-0.025,-0.0282,-0.0303,-0.0315,-0.0313,-0.0317,-0.0313,-0.0343,-0.0343,-0.0342,-0.0341,-0.0341,0,0.0182,0.0227,0.0278,0.0314,0.0331,0.0371,0.0411,0.0345,0.0363,0.0264,0.0281,0.0159,0.0064,-0.0009,-0.0117,-0.0237,-0.0255,-0.0308,-0.0318,-0.032,-0.0316,-0.0314,-0.0311,-0.0339,-0.0339,-0.0339,-0.0339,0,0.0312,0.0327,0.0383,0.0471,0.0517,0.0563,0.0589,0.0579,0.0516,0.0477,0.0392,0.0253,0.0174,0.0032,-0.0083,-0.0154,-0.0281,-0.0301,-0.0304,-0.0314,-0.0316,-0.0312,-0.031,-0.0336,-0.0337,-0.0337,-0.0337,0,0.0397,0.0446,0.0497,0.0569,0.0662,0.0677,0.0677,0.0667,0.065,0.0524,0.0532,0.0351,0.0261,0.0079,0.0013,-0.0092,-0.0131,-0.0176,-0.0187,-0.0191,-0.0123,-0.0101,-0.0057,0,0,0,0,0,0.0445,0.0462,0.0566,0.0604,0.0736,0.0751,0.0767,0.0747,0.069,0.0668,0.0574,0.0488,0.0279,0.0174,0.0077,0.0016,-0.0154,-0.0102,-0.0211,-0.0322,-0.0325,-0.0266,0,0,0,0,0,0,0.0444,0.0529,0.0553,0.0646,0.0684,0.0772,0.0768,0.0727,0.0682,0.0622,0.052,0.0481,0.029,0.0349,0.0082,0.0047,-0.0035,-0.0186,-0.0188,-0.032,-0.0323,-0.0325,-0.0266,0,0,0,0,0]}]]